TimeEDT,TemperatureF,Dew PointF,Humidity,Sea Level PressureIn,VisibilityMPH,Wind Direction,Wind SpeedMPH,Gust SpeedMPH,PrecipitationIn,Events,Conditions,WindDirDegrees,DateUTC
12:15 AM,47.8,36.0,63,30.03,10.0,NNW,3.5,-,N/A,,Clear,330,2013-05-07 04:15:00
12:35 AM,46.2,35.1,65,30.03,10.0,Calm,Calm,-,N/A,,Clear,0,2013-05-07 04:35:00
12:55 AM,45.1,35.2,68,30.04,10.0,Calm,Calm,-,N/A,,Clear,0,2013-05-07 04:55:00
1:15 AM,43.9,35.6,73,30.03,10.0,Calm,Calm,-,N/A,,Clear,0,2013-05-07 05:15:00
1:34 AM,43.9,34.9,71,30.03,10.0,Calm,Calm,-,N/A,,Clear,0,2013-05-07 05:34:00
1:55 AM,42.4,34.9,75,30.03,10.0,Calm,Calm,-,N/A,,Clear,0,2013-05-07 05:55:00
2:15 AM,41.4,34.7,77,30.03,10.0,NNW,3.5,-,N/A,,Clear,330,2013-05-07 06:15:00
2:34 AM,43.5,35.8,74,30.03,10.0,Calm,Calm,-,N/A,,Clear,0,2013-05-07 06:34:00
2:55 AM,41.2,34.3,77,30.03,10.0,Calm,Calm,-,N/A,,Clear,0,2013-05-07 06:55:00
3:15 AM,41.2,34.7,78,30.03,10.0,Calm,Calm,-,N/A,,Clear,0,2013-05-07 07:15:00
3:34 AM,41.2,34.5,77,30.03,10.0,ENE,4.6,-,N/A,,Clear,60,2013-05-07 07:34:00
3:55 AM,39.7,33.4,78,30.03,10.0,ENE,4.6,-,N/A,,Clear,60,2013-05-07 07:55:00
4:15 AM,41.2,32.2,70,30.03,10.0,NE,3.5,-,N/A,,Clear,50,2013-05-07 08:15:00
4:34 AM,41.2,32.9,72,30.03,10.0,NE,3.5,-,N/A,,Clear,50,2013-05-07 08:34:00
4:55 AM,38.7,32.2,78,30.03,10.0,Calm,Calm,-,N/A,,Clear,0,2013-05-07 08:55:00
5:15 AM,39.0,32.0,76,30.03,10.0,Calm,Calm,-,N/A,,Clear,0,2013-05-07 09:15:00
5:34 AM,38.7,32.5,79,30.04,10.0,Calm,Calm,-,N/A,,Clear,0,2013-05-07 09:34:00
5:55 AM,38.7,32.5,79,30.04,10.0,Calm,Calm,-,N/A,,Clear,0,2013-05-07 09:55:00
6:15 AM,38.7,33.1,80,30.04,10.0,Calm,Calm,-,N/A,,Clear,0,2013-05-07 10:15:00
6:35 AM,38.7,33.1,80,30.05,10.0,Calm,Calm,-,N/A,,Clear,0,2013-05-07 10:35:00
6:55 AM,38.7,33.4,81,30.05,10.0,Calm,Calm,-,N/A,,Clear,0,2013-05-07 10:55:00
7:15 AM,41.2,35.8,81,30.05,10.0,Calm,Calm,-,N/A,,Clear,0,2013-05-07 11:15:00
7:35 AM,43.9,37.4,78,30.06,10.0,Calm,Calm,-,N/A,,Clear,0,2013-05-07 11:35:00
7:55 AM,51.4,36.3,56,30.06,10.0,Calm,Calm,-,N/A,,Clear,0,2013-05-07 11:55:00
8:15 AM,54.1,34.3,47,30.06,10.0,ENE,3.5,-,N/A,,Clear,70,2013-05-07 12:15:00
8:35 AM,56.5,36.3,47,30.06,10.0,NE,3.5,-,N/A,,Clear,50,2013-05-07 12:35:00
8:55 AM,59.0,38.5,47,30.07,10.0,Calm,Calm,-,N/A,,Clear,0,2013-05-07 12:55:00
9:15 AM,61.9,40.5,45,30.07,10.0,ESE,3.5,-,N/A,,Clear,120,2013-05-07 13:15:00
9:35 AM,66.0,41.9,41,30.07,10.0,SE,4.6,-,N/A,,Clear,130,2013-05-07 13:35:00
9:55 AM,69.1,43.2,39,30.08,10.0,ESE,4.6,-,N/A,,Clear,120,2013-05-07 13:55:00
10:15 AM,69.1,43.3,39,30.08,10.0,SE,5.8,-,N/A,,Clear,140,2013-05-07 14:15:00
10:35 AM,71.6,44.2,37,30.08,10.0,SE,8.1,-,N/A,,Clear,140,2013-05-07 14:35:00
10:55 AM,71.6,42.8,35,30.08,10.0,SSE,6.9,-,N/A,,Clear,150,2013-05-07 14:55:00
11:15 AM,71.6,40.8,33,30.07,10.0,SSE,6.9,-,N/A,,Clear,160,2013-05-07 15:15:00
11:55 AM,71.6,35.8,27,30.07,10.0,SE,6.9,-,N/A,,Clear,140,2013-05-07 15:55:00
12:15 PM,72.5,36.0,26,30.06,10.0,South,6.9,-,N/A,,Clear,180,2013-05-07 16:15:00
12:35 PM,74.3,34.2,23,30.06,10.0,ESE,6.9,-,N/A,,Clear,120,2013-05-07 16:35:00
12:55 PM,74.5,30.9,20,30.06,10.0,SE,9.2,-,N/A,,Clear,130,2013-05-07 16:55:00
1:15 PM,76.6,28.8,17,30.05,10.0,East,10.4,-,N/A,,Clear,90,2013-05-07 17:15:00
1:35 PM,76.6,29.8,18,30.05,10.0,SSE,4.6,-,N/A,,Clear,150,2013-05-07 17:35:00
1:55 PM,76.6,31.1,19,30.04,10.0,East,9.2,-,N/A,,Clear,100,2013-05-07 17:55:00
2:14 PM,76.6,27.5,16,30.04,10.0,East,3.5,-,N/A,,Clear,90,2013-05-07 18:14:00
2:35 PM,76.6,27.5,16,30.03,10.0,ESE,8.1,16.1,N/A,,Clear,120,2013-05-07 18:35:00
2:55 PM,76.6,26.2,16,30.03,10.0,SSE,3.5,-,N/A,,Clear,160,2013-05-07 18:55:00
3:14 PM,77.2,21.2,12,30.03,10.0,ESE,5.8,-,N/A,,Clear,120,2013-05-07 19:14:00
3:35 PM,76.6,20.8,12,30.02,10.0,SSE,8.1,-,N/A,,Clear,150,2013-05-07 19:35:00
3:55 PM,76.6,19.9,12,30.01,10.0,SSW,8.1,-,N/A,,Clear,200,2013-05-07 19:55:00
4:14 PM,77.9,23.5,13,30.01,10.0,SSE,8.1,-,N/A,,Clear,160,2013-05-07 20:14:00
4:35 PM,76.8,28.6,17,30.00,10.0,SSE,5.8,-,N/A,,Clear,150,2013-05-07 20:35:00
4:55 PM,77.2,32.0,19,30.00,10.0,SSE,4.6,-,N/A,,Clear,160,2013-05-07 20:55:00
5:14 PM,76.6,28.8,17,30.00,10.0,ESE,9.2,-,N/A,,Clear,110,2013-05-07 21:14:00
5:35 PM,76.6,32.9,20,29.99,10.0,SSE,5.8,-,N/A,,Clear,150,2013-05-07 21:35:00
5:55 PM,77.0,32.5,20,29.99,10.0,SE,6.9,-,N/A,,Scattered Clouds,140,2013-05-07 21:55:00
6:14 PM,76.6,33.4,21,29.99,10.0,SSE,8.1,-,N/A,,Scattered Clouds,150,2013-05-07 22:14:00
6:35 PM,76.6,33.1,20,30.00,10.0,South,4.6,-,N/A,,Scattered Clouds,180,2013-05-07 22:35:00
6:55 PM,76.6,36.0,23,30.00,10.0,South,6.9,-,N/A,,Clear,170,2013-05-07 22:55:00
7:15 PM,76.6,36.0,23,30.00,10.0,SE,5.8,-,N/A,,Clear,140,2013-05-07 23:15:00
7:35 PM,74.3,37.9,27,30.00,10.0,SE,9.2,-,N/A,,Clear,130,2013-05-07 23:35:00
7:55 PM,73.2,37.0,27,30.00,10.0,SE,9.2,-,N/A,,Clear,140,2013-05-07 23:55:00
8:15 PM,71.6,35.8,27,30.00,10.0,SE,6.9,-,N/A,,Clear,130,2013-05-08 00:15:00
8:35 PM,71.6,37.9,29,30.00,10.0,SE,6.9,-,N/A,,Clear,130,2013-05-08 00:35:00
8:55 PM,70.2,38.5,31,30.01,10.0,SSE,4.6,-,N/A,,Clear,150,2013-05-08 00:55:00
9:15 PM,69.1,37.9,32,30.01,10.0,SE,3.5,-,N/A,,Clear,130,2013-05-08 01:15:00
9:35 PM,66.6,37.8,35,30.02,10.0,SE,5.8,-,N/A,,Clear,130,2013-05-08 01:35:00
9:54 PM,64.4,39.7,40,30.03,10.0,SW,6.9,-,N/A,,Clear,230,2013-05-08 01:54:00
10:15 PM,61.7,42.3,49,30.03,10.0,SSW,4.6,-,N/A,,Clear,210,2013-05-08 02:15:00
10:35 PM,63.3,42.1,46,30.04,10.0,SSW,4.6,-,N/A,,Clear,200,2013-05-08 02:35:00
10:54 PM,64.6,41.9,44,30.04,10.0,Calm,Calm,-,N/A,,Clear,0,2013-05-08 02:54:00
11:15 PM,64.0,41.7,44,30.03,10.0,SSE,4.6,-,N/A,,Clear,150,2013-05-08 03:15:00
11:34 PM,59.0,42.8,55,30.04,10.0,Calm,Calm,-,N/A,,Clear,0,2013-05-08 03:34:00
11:55 PM,58.6,44.6,60,30.04,10.0,Calm,Calm,-,N/A,,Clear,0,2013-05-08 03:55:00